Location: Dover
(39.1580°N, 75.5250°W)
Time: 00:28:33
(UTC-04:00)

Daily predictions for brighter satellites

Satellite Brightness Start Highest point End
(mag) Time Altitude Azimuth Time Altitude Azimuth Time Altitude Azimuth
SJ 16-02 4.5 03:58:56 11° ENE 03:58:56 11° ENE 03:59:30 10° ENE
Milstar 3 4.0 04:25:45 28° SSE 04:25:45 28° SSE 04:29:53 10° SE
Cosmos 1125 Rocket 4.5 04:33:57 44° E 04:33:57 44° E 04:38:40 10° NNE
USA 215 4.2 04:41:56 10° NNE 04:47:12 34° NNW 04:47:12 34° NNW
ADEOS II 3.3 04:42:57 10° N 04:45:47 33° N 04:45:47 33° N
Cosmos 158 Rocket 4.4 04:53:45 39° N 04:55:39 64° ENE 05:00:59 10° SSE
Okean O Rocket 2.3 04:53:07 10° NNE 04:56:59 53° ENE 04:56:59 53° ENE
Cosmos 2219 3.2 05:00:19 47° N 05:01:59 79° ENE 05:07:36 10° SSE
Cosmos 1048 Rocket 4.4 05:00:09 22° N 05:03:27 61° ENE 05:08:38 10° SSE
NOSS 3-1 (C) 3.5 05:05:14 55° NW 05:05:14 55° NW 05:11:06 10° NNE
Meteor 1-31 Rocket 4.4 05:03:32 10° NNE 05:07:00 32° E 05:10:25 10° SSE
Cosmos 2297 Rocket 4.1 05:02:33 10° N 05:07:19 27° ENE 05:12:05 10° ESE
CZ-4C R/B 4.0 05:12:17 27° SSW 05:12:17 27° SSW 05:16:28 10° S
NOSS 3-1 (A) 3.2 05:11:56 65° W 05:12:29 69° NW 05:18:54 10° NNE
Cosmos 1943 Rocket 4.4 05:16:16 11° NNW 05:16:16 11° NNW 05:16:45 10° NNW
USA 267 3.1 05:11:15 10° SE 05:17:47 73° SW 05:20:22 39° WNW
Intercosmos 24 4.3 05:19:04 10° N 05:23:21 59° E 05:26:53 10° SSE
SL-8 Rocket 4.0 05:18:22 10° N 05:24:43 81° E 05:31:02 10° S
Meteor 2-14 Rocket 4.4 05:19:43 10° N 05:25:49 82° E 05:31:54 10° S
CZ-4B DEB 4.1 05:22:15 10° NNE 05:27:46 81° WNW 05:33:16 10° SSW
RUBIN 8/PSLV 4.4 05:24:31 10° N 05:28:48 72° WNW 05:29:07 68° WSW
PAYLOAD B 4.1 05:24:50 10° N 05:30:21 73° WNW 05:35:50 10° SSW
Meteor 1-16 Rocket 4.2 05:24:46 10° NNW 05:30:27 65° W 05:36:14 10° S
Landsat 4 4.4 05:27:54 10° SSE 05:31:34 53° ENE 05:35:15 10° N
Meteor PRIRODA 3.6 05:28:37 10° NNE 05:32:24 85° ESE 05:33:49 36° S
Cosmos 1174 4.5 05:29:18 16° NNW 05:34:17 86° WSW 05:39:11 10° SSE
SJ 16-02 1.5 05:36:00 49° NW 05:36:00 49° NW 05:39:55 10° N
CZ-4B R/B 3.1 05:30:31 10° N 05:36:00 76° WNW 05:41:35 10° SSW
Meteor 2-5 Rocket 3.9 05:34:53 25° SW 05:38:09 51° WNW 05:43:49 10° N
Cosmos 2369 4.1 05:35:41 10° S 05:41:13 62° ESE 05:46:48 10° NNE
Meteor 1-28 Rocket 4.1 05:37:35 10° SSE 05:41:16 50° ENE 05:44:59 10° N
NOSS 2-3 (C) 4.5 05:37:54 10° SSW 05:42:22 55° ESE 05:47:28 10° NE
Meteor 2-1 Rocket 4.5 05:38:16 10° N 05:44:11 75° E 05:49:57 10° SSE
SWAS 4.3 05:43:26 24° NNW 05:45:57 77° WSW 05:50:15 10° SSE
Cosmos 372 Rocket 4.3 05:45:22 36° WSW 05:46:40 42° WNW 05:51:40 10° N
USA 81 4.0 05:44:36 10° SSW 05:49:46 57° W 05:54:58 10° N
CZ-2C R/B 3.7 05:45:18 10° SSE 05:50:03 88° WSW 05:54:47 10° NNW
USA 116 3.6 05:50:59 10° SSE 05:54:39 87° E 05:58:51 10° NNW
MTI 4.1 05:52:33 10° SSE 05:55:45 67° ENE 05:58:59 10° N
ERBS 3.6 05:56:38 25° SW 05:56:38 25° SW 05:58:56 10° S
Cosmos 1356 3.9 05:56:25 39° WNW 05:56:25 39° WNW 05:59:25 10° N
Cosmos 2218 Rocket 3.9 05:51:19 10° NNW 05:57:31 67° W 06:03:46 10° S
Cosmos 1269 Rocket 4.2 05:54:44 10° NNW 05:59:49 48° WSW 06:04:53 10° S
SKYMED 2 4.4 05:56:49 10° SSE 06:01:01 52° ENE 06:05:15 10° N
Cosmos 2278 3.6 05:58:24 10° SSW 06:04:03 88° WNW 06:09:45 10° NNE
Cosmos 2344 4.2 05:59:41 10° SSW 06:07:10 59° ESE 06:15:08 10° NE
CZ-2C R/B 4.3 06:03:48 10° NNE 06:08:24 35° E 06:13:03 10° SSE
Cosmos 1674 2.5 06:04:58 10° S 06:08:41 87° W 06:12:26 10° N
Cosmos 1726 3.7 06:09:13 10° N 06:12:41 38° E 06:16:07 10° SSE
Cosmos 2227 Rocket 2.1 06:08:46 10° NNW 06:14:26 72° WSW 06:20:04 10° SSE
Nadezhda 3 Rocket 4.2 06:08:53 10° S 06:15:11 76° E 06:21:28 10° N
Cosmos 494 Rocket 3.9 06:10:30 10° NNW 06:15:42 87° WSW 06:20:55 10° SSE
Lacrosse 5 4.3 06:19:02 10° N 06:20:46 12° NNE 06:22:30 10° NNE
Cosmos 1607 4.3 06:14:30 10° NNW 06:21:01 71° ENE 06:27:26 10° SE
CZ-3 Stage 3 4.4 06:18:27 13° WSW 06:23:05 53° S 06:55:24 10° ESE
NOSS 2-3 (D) 3.8 06:20:14 10° SW 06:24:50 66° NW 06:30:09 10° NNE
Meteor 1-24 Rocket 4.5 06:21:19 10° SW 06:26:37 32° WNW 06:31:52 10° N
ADEOS II 4.0 06:26:15 10° NW 06:26:43 10° NW 06:26:43 10° NW
DELTA 2 R/B(2) 4.2 06:30:01 19° W 06:31:23 48° SSW 06:34:42 10° ESE
NOAA 6 4.0 06:27:23 10° N 06:32:29 62° WNW 06:37:32 10° SSW
IDEFIX/ARIANE 42P 2.8 06:27:25 10° NNE 06:32:41 78° ESE 06:37:52 10° S
Okean O Rocket 3.3 06:31:13 10° NW 06:33:21 13° WNW 06:34:26 12° W
SL-14 R/B 3.9 06:33:20 10° S 06:37:10 59° E 06:40:59 10° NNE
Cosmos 1656 3.9 06:33:28 10° SW 06:39:01 53° WNW 06:44:36 10° NNE
Meteor 1-31 Rocket 4.3 06:38:48 10° NNW 06:41:10 16° WNW 06:43:31 10° WSW
Meteor 2-10 4.5 06:38:04 10° N 06:43:38 76° E 06:49:18 10° SSE
ATLAS CENTAUR R/B 3.3 06:41:15 10° N 06:44:28 25° NE 06:47:48 10° ESE
Cosmos 2084 Rocket 4.5 06:41:15 10° WSW 06:44:49 25° NW 06:48:15 10° N
Cosmos 2221 2.8 06:41:34 10° NNW 06:45:47 47° W 06:49:59 10° SSW
Cosmos 1408 Rocket 4.0 06:41:37 10° S 06:45:54 68° E 06:50:14 10° NNE
DMSP B5D1-3 4.5 06:41:01 10° S 06:46:05 80° WSW 06:51:13 10° NNW
COSMO-SKYMED 1 2.9 06:44:57 10° S 06:49:04 43° W 06:53:12 10° NNW
KORONAS-FOTON 4.3 06:45:46 10° SSW 06:49:16 36° WNW 06:52:49 10° N
ATLAS 2AS CENTAUR R/B 3.1 06:43:32 10° SW 06:51:15 82° NW 06:59:27 10° NNE
Cosmos 2297 Rocket 2.6 06:46:12 10° NW 06:51:29 41° WSW 06:56:43 10° S
Cosmos 1818 3.6 06:46:18 10° SW 06:51:41 72° WNW 06:57:09 10° NNE
Cosmos 2251 Rocket 3.7 06:49:05 10° NNW 06:54:19 54° WSW 06:59:31 10° S
Okean-O 3.4 06:50:45 10° N 06:54:40 31° WNW 06:58:35 10° SW
Cosmos 1697 Rocket 2.8 06:52:03 10° SW 06:57:35 55° WNW 07:03:10 10° NNE
CZ-3 R/B 4.4 06:59:06 10° W 07:09:12 15° WSW 07:14:47 10° SSW
